TimeEDT,TemperatureF,Dew PointF,Humidity,Sea Level PressureIn,VisibilityMPH,Wind Direction,Wind SpeedMPH,Gust SpeedMPH,PrecipitationIn,Events,Conditions,WindDirDegrees,DateUTC
12:15 AM,69.8,64.4,83,30.16,10.0,NE,3.5,-,N/A,,Mostly Cloudy,40,2013-07-14 04:15:00
12:35 AM,69.8,64.4,83,30.16,10.0,Calm,Calm,-,N/A,,Partly Cloudy,0,2013-07-14 04:35:00
12:55 AM,69.8,64.4,83,30.15,10.0,Calm,Calm,-,N/A,,Mostly Cloudy,0,2013-07-14 04:55:00
1:15 AM,68.0,64.4,88,30.15,10.0,Calm,Calm,-,N/A,,Mostly Cloudy,0,2013-07-14 05:15:00
1:35 AM,68.0,64.4,88,30.15,10.0,Calm,Calm,-,N/A,,Mostly Cloudy,0,2013-07-14 05:35:00
1:55 AM,69.8,64.4,83,30.16,10.0,Calm,Calm,-,N/A,,Overcast,0,2013-07-14 05:55:00
2:15 AM,69.8,64.4,83,30.16,10.0,Calm,Calm,-,N/A,,Mostly Cloudy,0,2013-07-14 06:15:00
2:35 AM,68.0,64.4,88,30.16,10.0,Calm,Calm,-,N/A,,Mostly Cloudy,0,2013-07-14 06:35:00
2:55 AM,68.0,66.2,94,30.15,10.0,Calm,Calm,-,N/A,,Overcast,0,2013-07-14 06:55:00
3:15 AM,69.8,66.2,88,30.15,10.0,Calm,Calm,-,N/A,,Overcast,0,2013-07-14 07:15:00
3:35 AM,69.8,66.2,88,30.15,10.0,East,6.9,-,N/A,,Overcast,90,2013-07-14 07:35:00
3:55 AM,68.0,66.2,94,30.15,10.0,East,6.9,-,N/A,,Overcast,100,2013-07-14 07:55:00
4:15 AM,68.0,66.2,94,30.16,10.0,East,5.8,-,N/A,,Mostly Cloudy,100,2013-07-14 08:15:00
4:35 AM,68.0,66.2,94,30.16,10.0,Calm,Calm,-,N/A,,Light Drizzle,0,2013-07-14 08:35:00
4:55 AM,66.2,66.2,100,30.16,4.0,Calm,Calm,-,N/A,Rain,Light Rain,0,2013-07-14 08:55:00
5:15 AM,66.2,66.2,100,30.17,5.0,ESE,3.5,-,N/A,Rain,Light Rain,120,2013-07-14 09:15:00
5:35 AM,66.2,66.2,100,30.18,10.0,Variable,5.8,-,N/A,,Overcast,0,2013-07-14 09:35:00
5:55 AM,66.2,66.2,100,30.19,10.0,Calm,Calm,-,N/A,,Mostly Cloudy,0,2013-07-14 09:55:00
6:15 AM,66.2,66.2,100,30.20,10.0,Calm,Calm,-,N/A,,Scattered Clouds,0,2013-07-14 10:15:00
6:35 AM,66.2,66.2,100,30.20,10.0,Calm,Calm,-,N/A,,Mostly Cloudy,0,2013-07-14 10:35:00
6:55 AM,66.2,66.2,100,30.21,10.0,Calm,Calm,-,N/A,,Scattered Clouds,0,2013-07-14 10:55:00
7:15 AM,69.8,66.2,88,30.21,10.0,ESE,3.5,-,N/A,,Partly Cloudy,110,2013-07-14 11:15:00
7:35 AM,69.8,66.2,88,30.22,10.0,East,3.5,-,N/A,,Mostly Cloudy,100,2013-07-14 11:35:00
7:55 AM,69.8,68.0,94,30.22,10.0,ENE,4.6,-,N/A,,Mostly Cloudy,70,2013-07-14 11:55:00
8:15 AM,71.6,66.2,83,30.23,10.0,East,4.6,-,N/A,,Overcast,80,2013-07-14 12:15:00
8:35 AM,71.6,66.2,83,30.24,10.0,ENE,5.8,-,N/A,,Mostly Cloudy,60,2013-07-14 12:35:00
8:55 AM,73.4,66.2,78,30.25,10.0,East,8.1,-,N/A,,Mostly Cloudy,80,2013-07-14 12:55:00
9:15 AM,73.4,66.2,78,30.25,10.0,East,5.8,-,N/A,,Mostly Cloudy,80,2013-07-14 13:15:00
9:35 AM,73.4,66.2,78,30.25,10.0,ESE,6.9,-,N/A,,Scattered Clouds,120,2013-07-14 13:35:00
9:55 AM,73.4,66.2,78,30.26,10.0,ESE,10.4,-,N/A,,Scattered Clouds,110,2013-07-14 13:55:00
10:15 AM,75.2,66.2,73,30.26,10.0,ESE,9.2,-,N/A,,Scattered Clouds,120,2013-07-14 14:15:00
10:35 AM,75.2,66.2,73,30.26,10.0,Variable,6.9,-,N/A,,Scattered Clouds,0,2013-07-14 14:35:00
10:55 AM,75.2,66.2,73,30.27,10.0,East,11.5,-,N/A,,Scattered Clouds,100,2013-07-14 14:55:00
11:15 AM,77.0,68.0,74,30.27,10.0,East,9.2,-,N/A,,Scattered Clouds,80,2013-07-14 15:15:00
11:35 AM,77.0,66.2,69,30.28,10.0,East,9.2,-,N/A,,Scattered Clouds,100,2013-07-14 15:35:00
11:55 AM,77.0,66.2,69,30.29,10.0,East,12.7,-,N/A,,Mostly Cloudy,80,2013-07-14 15:55:00
12:15 PM,77.0,64.4,65,30.30,10.0,SE,9.2,-,N/A,,Mostly Cloudy,130,2013-07-14 16:15:00
12:35 PM,77.0,64.4,65,30.30,10.0,East,9.2,-,N/A,,Mostly Cloudy,90,2013-07-14 16:35:00
12:55 PM,78.8,64.4,61,30.30,10.0,East,11.5,-,N/A,,Mostly Cloudy,100,2013-07-14 16:55:00
1:15 PM,78.8,64.4,61,30.30,10.0,East,12.7,-,N/A,,Scattered Clouds,100,2013-07-14 17:15:00
1:35 PM,78.8,66.2,65,30.29,10.0,ENE,11.5,-,N/A,,Scattered Clouds,70,2013-07-14 17:35:00
1:55 PM,78.8,64.4,61,30.29,10.0,East,11.5,-,N/A,,Partly Cloudy,80,2013-07-14 17:55:00
2:15 PM,78.8,66.2,65,30.28,10.0,East,10.4,-,N/A,,Partly Cloudy,90,2013-07-14 18:15:00
2:35 PM,80.6,64.4,58,30.27,10.0,ESE,10.4,-,N/A,,Clear,110,2013-07-14 18:35:00
2:55 PM,80.6,66.2,61,30.27,10.0,ENE,9.2,-,N/A,,Clear,70,2013-07-14 18:55:00
3:15 PM,80.6,66.2,61,30.27,10.0,East,11.5,-,N/A,,Partly Cloudy,80,2013-07-14 19:15:00
3:35 PM,80.6,66.2,61,30.27,10.0,ESE,9.2,-,N/A,,Scattered Clouds,110,2013-07-14 19:35:00
3:55 PM,80.6,64.4,58,30.27,10.0,East,6.9,-,N/A,,Mostly Cloudy,90,2013-07-14 19:55:00
4:15 PM,80.6,64.4,58,30.26,10.0,SSE,9.2,-,N/A,,Mostly Cloudy,150,2013-07-14 20:15:00
4:35 PM,80.6,66.2,61,30.27,10.0,ESE,5.8,-,N/A,,Mostly Cloudy,120,2013-07-14 20:35:00
4:55 PM,80.6,64.4,58,30.26,10.0,South,9.2,-,N/A,,Scattered Clouds,170,2013-07-14 20:55:00
5:15 PM,80.6,66.2,61,30.26,10.0,Variable,3.5,-,N/A,,Clear,0,2013-07-14 21:15:00
5:35 PM,80.6,64.4,58,30.25,10.0,SE,8.1,-,N/A,,Partly Cloudy,140,2013-07-14 21:35:00
5:55 PM,80.6,64.4,58,30.25,10.0,East,11.5,-,N/A,,Scattered Clouds,80,2013-07-14 21:55:00
6:15 PM,80.6,64.4,58,30.25,10.0,East,9.2,-,N/A,,Partly Cloudy,100,2013-07-14 22:15:00
6:35 PM,80.6,64.4,58,30.25,10.0,SE,6.9,-,N/A,,Scattered Clouds,140,2013-07-14 22:35:00
6:55 PM,80.6,64.4,58,30.26,10.0,Calm,Calm,-,N/A,,Partly Cloudy,0,2013-07-14 22:55:00
7:15 PM,78.8,64.4,61,30.26,10.0,East,3.5,-,N/A,,Scattered Clouds,90,2013-07-14 23:15:00
7:35 PM,78.8,66.2,65,30.26,10.0,Calm,Calm,-,N/A,,Mostly Cloudy,0,2013-07-14 23:35:00
7:55 PM,75.2,69.8,83,30.27,10.0,Calm,Calm,-,N/A,,Overcast,0,2013-07-14 23:55:00
8:15 PM,78.8,64.4,61,30.28,10.0,ESE,8.1,-,N/A,,Overcast,120,2013-07-15 00:15:00
8:35 PM,77.0,64.4,65,30.29,10.0,ESE,5.8,-,N/A,,Overcast,110,2013-07-15 00:35:00
8:55 PM,75.2,64.4,69,30.29,10.0,East,8.1,-,N/A,,Mostly Cloudy,80,2013-07-15 00:55:00
9:15 PM,75.2,64.4,69,30.29,10.0,East,6.9,-,N/A,,Partly Cloudy,90,2013-07-15 01:15:00
9:35 PM,73.4,64.4,73,30.30,10.0,ENE,4.6,-,N/A,,Partly Cloudy,70,2013-07-15 01:35:00
9:55 PM,73.4,64.4,73,30.30,10.0,ENE,4.6,-,N/A,,Clear,60,2013-07-15 01:55:00
10:15 PM,73.4,64.4,73,30.31,10.0,East,4.6,-,N/A,,Mostly Cloudy,100,2013-07-15 02:15:00
10:35 PM,73.4,64.4,73,30.32,10.0,East,8.1,-,N/A,,Overcast,90,2013-07-15 02:35:00
10:55 PM,73.4,64.4,73,30.32,10.0,East,5.8,-,N/A,,Mostly Cloudy,80,2013-07-15 02:55:00
11:15 PM,73.4,64.4,73,30.32,10.0,East,5.8,-,N/A,,Mostly Cloudy,80,2013-07-15 03:15:00
11:35 PM,73.4,62.6,69,30.32,10.0,East,4.6,-,N/A,,Scattered Clouds,80,2013-07-15 03:35:00
11:55 PM,73.4,64.4,73,30.32,10.0,East,4.6,-,N/A,,Scattered Clouds,90,2013-07-15 03:55:00